(281568) = 2008 UF93

Discovered at Socorro on 2008-10-24 by LINEAR.

Orbit

Orbit type: Main Belt

Note: WebGL enabled browser required.

epoch2022-01-21.0
epoch JD2459600.5
perihelion date2020-08-13.82732
perihelion JD2459075.32732
argument of perihelion (°)42.26557
ascending node (°)59.43480
inclination (°)26.32202
eccentricity0.2029096
perihelion distance (AU)2.4978017
Tisserand w.r.t. Jupiter3.0
ΔV w.r.t. Earth (km/sec)12.8
semimajor axis (AU)3.1336494
mean anomaly (°)93.31047
mean daily motion (°/day)0.17767580
aphelion distance (AU)3.769
period (years)5.55
P-vector [x]-0.14274870
P-vector [y]0.74725511
P-vector [z]0.64902436
Q-vector [x]-0.91315323
Q-vector [y]-0.35238626
Q-vector [z]0.20487828
absolute magnitude15.37
phase slope0.15
uncertainty0
referenceMPO 696802
observations used359
oppositions10
arc length (days)8922
first opposition used1997
last opposition used2022
residual rms (arc-secs)0.77
perturbers coarse indicatorM-v
perturbers precise indicator003Ek
first observation date used1997-11-30.0
last observation date used2022-05-05.0
computer namePan
Minimum Orbit Intersection Distances (in AU)
for orbit epoch: 2458200.5, reference: MPO382398
Mercury2.19299
Venus1.81014
Earth1.56061
Mars1.02122
Jupiter1.75035
Saturn6.42086
Uranus15.1078
Neptune26.5737

Observations

382 total observations over interval: 1997 11 30.34112 – 2022 06 19.352179
These data are available for download (format description).

Date (UT) J2000 RA J2000 Dec Magn Location Ref
1997 11 30.34112 03 14 43.66 +15 55 25.2 18.9 V 691 – Steward Observatory, Kitt Peak-Spacewatch MPS 269110
1997 11 30.36314 03 14 42.19 +15 55 33.9 18.8 V 691 – Steward Observatory, Kitt Peak-Spacewatch MPS 269110
1997 11 30.38506 03 14 40.68 +15 55 42.0 18.7 V 691 – Steward Observatory, Kitt Peak-Spacewatch MPS 269110
2003 10 24.387910 07 24 59.265 +36 13 00.22 20.58 V 645 – Apache Point-Sloan Digital Sky Survey MPS 269110
2003 10 24.391382 07 24 59.469 +36 13 02.53 21.24   645 – Apache Point-Sloan Digital Sky Survey MPS 269110
2008 09 29.39579 03 19 16.42 +00 36 09.5 19.5 V 703 – Catalina Sky Survey MPS 267668
2008 09 29.40675 03 19 16.14 +00 36 08.7 19.8 V 703 – Catalina Sky Survey MPS 267668
2008 09 29.41772 03 19 15.85 +00 36 10.5 19.9 V 703 – Catalina Sky Survey MPS 267668
2008 09 29.42875 03 19 15.42 +00 36 09.7 19.4 V 703 – Catalina Sky Survey MPS 267668
2008 10 08.46134 03 14 18.20 +00 44 51.0 19.3 V 703 – Catalina Sky Survey MPS 267668
2008 10 08.46857 03 14 17.84 +00 44 52.0 19.4 V 703 – Catalina Sky Survey MPS 267668
2008 10 08.47575 03 14 17.59 +00 44 51.9 19.0 V 703 – Catalina Sky Survey MPS 267668
2008 10 08.48301 03 14 17.30 +00 44 52.6 19.3 V 703 – Catalina Sky Survey MPS 267668
2008 10 24.31168 03 00 59.12 +01 13 11.3 19.0   704 – Lincoln Laboratory ETS, New Mexico MPS 261881
2008 10 24.31181 03 00 59.11 +01 13 12.1 19.5   704 – Lincoln Laboratory ETS, New Mexico MPS 261881
2008 10 24.32317 03 00 58.40 +01 13 12.7 19.4   704 – Lincoln Laboratory ETS, New Mexico MPS 261881
2008 10 24.32330 03 00 58.37 +01 13 12.8 19.8   704 – Lincoln Laboratory ETS, New Mexico MPS 261881
2008 10 24.33461 03 00 57.68 +01 13 14.8 19.7   704 – Lincoln Laboratory ETS, New Mexico MPS 261881
2008 10 24.33475 03 00 57.69 +01 13 15.0 19.8   704 – Lincoln Laboratory ETS, New Mexico MPS 261881
2008 10 24.34620 03 00 57.01 +01 13 16.5 19.8   704 – Lincoln Laboratory ETS, New Mexico MPS 261881
2008 10 24.35771 03 00 56.32 +01 13 19.0 19.6   704 – Lincoln Laboratory ETS, New Mexico MPS 261881
2008 10 26.36393 02 58 55.09 +01 18 37.4 19.4 V G96 – Mt. Lemmon Survey MPS 267668
2008 10 26.36966 02 58 54.73 +01 18 38.5 19.2 V G96 – Mt. Lemmon Survey MPS 267668
2008 10 26.38122 02 58 54.01 +01 18 40.4 19.2 V G96 – Mt. Lemmon Survey MPS 267668
2008 10 29.25392 02 55 55.15 +01 27 08.0 19.0   704 – Lincoln Laboratory ETS, New Mexico MPS 261881
2008 10 29.26559 02 55 54.37 +01 27 10.1 19.5   704 – Lincoln Laboratory ETS, New Mexico MPS 261881
2008 10 29.27716 02 55 53.63 +01 27 11.7 19.8   704 – Lincoln Laboratory ETS, New Mexico MPS 261881
2008 10 29.28902 02 55 52.84 +01 27 14.0 19.6   704 – Lincoln Laboratory ETS, New Mexico MPS 261881
2008 10 29.30075 02 55 52.11 +01 27 17.5 19.6   704 – Lincoln Laboratory ETS, New Mexico MPS 261881
2008 11 03.29734 02 50 29.36 +01 44 29.8 20.4 V 703 – Catalina Sky Survey MPS 263455
2008 11 03.30321 02 50 29.04 +01 44 32.0 19.4 V 703 – Catalina Sky Survey MPS 263455
2008 11 03.30896 02 50 28.64 +01 44 33.1 19.8 V 703 – Catalina Sky Survey MPS 263455
2008 11 03.31482 02 50 28.39 +01 44 32.4 19.6 V 703 – Catalina Sky Survey MPS 263455
2008 11 18.29653 02 34 13.65 +02 56 32.2 18.5 V 703 – Catalina Sky Survey MPS 265345
2008 11 18.30255 02 34 13.29 +02 56 34.0 18.9 V 703 – Catalina Sky Survey MPS 265345
2008 11 18.31472 02 34 12.43 +02 56 39.7 18.4 V 703 – Catalina Sky Survey MPS 265345
2010 02 25.520418 12 23 46.797 +40 22 28.86 19.51 r F51 – Pan-STARRS 1, Haleakala MPS 319406
2010 02 25.531174 12 23 46.216 +40 22 32.70 19.42 r F51 – Pan-STARRS 1, Haleakala MPS 319406
2010 02 26.402536 12 23 00.676 +40 27 37.33 19.55 i F51 – Pan-STARRS 1, Haleakala MPS 319406
2010 02 26.411362 12 23 00.195 +40 27 40.44 19.45 i F51 – Pan-STARRS 1, Haleakala MPS 319406
2010 03 17.24255 12 03 32.94 +41 20 47.2 19.3 V 703 – Catalina Sky Survey MPS 318018
2010 03 17.24770 12 03 32.61 +41 20 47.8 19.7 V 703 – Catalina Sky Survey MPS 318018
2010 03 17.25289 12 03 32.22 +41 20 47.8 19.7 V 703 – Catalina Sky Survey MPS 318018
2010 03 17.25811 12 03 31.86 +41 20 47.9 19.2 V 703 – Catalina Sky Survey MPS 318018
2010 03 21.453135 11 58 55.941 +41 15 49.26 20.37 g F51 – Pan-STARRS 1, Haleakala MPS 337419
2010 03 21.462304 11 58 55.327 +41 15 48.17 20.48 g F51 – Pan-STARRS 1, Haleakala MPS 337419
2010 05 28.379101 11 34 38.55 +29 37 28.4   C51 – WISE MPS 329238
2010 05 28.511404 11 34 41.96 +29 35 34.3   C51 – WISE MPS 329238
2010 05 28.643708 11 34 45.39 +29 33 41.1   C51 – WISE MPS 329238
2010 05 28.842101 11 34 50.62 +29 30 50.4   C51 – WISE MPS 329238
2010 05 28.908189 11 34 52.37 +29 29 53.8   C51 – WISE MPS 329238
2010 05 28.974404 11 34 54.10 +29 28 56.7   C51 – WISE MPS 329238
2010 05 29.040492 11 34 55.88 +29 28 00.4   C51 – WISE MPS 329238
2010 05 29.106708 11 34 57.60 +29 27 03.2   C51 – WISE MPS 329238
2010 05 29.172796 11 34 59.38 +29 26 06.2   C51 – WISE MPS 329238
2010 05 29.239012 11 35 01.11 +29 25 08.7   C51 – WISE MPS 329238
2010 05 29.371316 11 35 04.69 +29 23 14.9   C51 – WISE MPS 329238
2010 05 29.503619 11 35 08.24 +29 21 21.2   C51 – WISE MPS 329238
2010 05 29.635924 11 35 11.84 +29 19 27.3   C51 – WISE MPS 329238
2010 05 29.768227 11 35 15.43 +29 17 33.2   C51 – WISE MPS 329238
2011 01 30.61726 16 03 16.333 -14 18 25.79 21.6 w F51 – Pan-STARRS 1, Haleakala MPS 378706
2011 01 30.62194 16 03 16.553 -14 18 26.88 21.5 w F51 – Pan-STARRS 1, Haleakala MPS 378706
2011 01 30.62739 16 03 16.847 -14 18 28.68 21.4 w F51 – Pan-STARRS 1, Haleakala MPS 378706
2011 01 30.63208 16 03 17.063 -14 18 29.83 21.5 w F51 – Pan-STARRS 1, Haleakala MPS 378706
2011 05 21.27756 15 51 21.34 -20 28 50.5 19.8 V G96 – Mt. Lemmon Survey MPS 383328
2011 05 21.28505 15 51 20.88 -20 28 51.3 19.7 V G96 – Mt. Lemmon Survey MPS 383328
2011 05 21.29256 15 51 20.44 -20 28 52.2 19.8 V G96 – Mt. Lemmon Survey MPS 383328
2011 06 07.38921 15 35 25.554 -21 04 32.50 21.0 w F51 – Pan-STARRS 1, Haleakala MPS 384700
2011 06 07.40342 15 35 24.803 -21 04 34.17 20.9 w F51 – Pan-STARRS 1, Haleakala MPS 384700
2011 06 07.41758 15 35 24.052 -21 04 35.93 20.8 w F51 – Pan-STARRS 1, Haleakala MPS 384700
2011 06 07.43177 15 35 23.306 -21 04 37.66 21.1 w F51 – Pan-STARRS 1, Haleakala MPS 384700
2014 11 21.57480 06 23 00.895 +39 04 04.71 18.8 w F51 – Pan-STARRS 1, Haleakala MPS 549381
2014 11 21.58781 06 23 00.435 +39 04 15.93 18.9 w F51 – Pan-STARRS 1, Haleakala MPS 549381
2014 11 21.60076 06 22 59.971 +39 04 27.09 18.9 w F51 – Pan-STARRS 1, Haleakala MPS 549381
2014 12 01.50106 06 15 39.030 +41 26 17.83 18.9 i F51 – Pan-STARRS 1, Haleakala MPS 551271
2014 12 01.51398 06 15 38.276 +41 26 28.66 18.9 i F51 – Pan-STARRS 1, Haleakala MPS 551271
2014 12 03.49988 06 13 44.315 +41 54 00.86 19.1 i F51 – Pan-STARRS 1, Haleakala MPS 551271
2014 12 03.51295 06 13 43.496 +41 54 11.67 19.1 i F51 – Pan-STARRS 1, Haleakala MPS 551271
2014 12 03.52599 06 13 42.687 +41 54 22.35 19.0 i F51 – Pan-STARRS 1, Haleakala MPS 551271
2014 12 13.21684 06 02 43.37 +43 59 34.9 19.2 R H15 – ISON-NM Observatory, Mayhill MPS 552894
2014 12 13.22763 06 02 42.46 +43 59 41.6 18.7 R H15 – ISON-NM Observatory, Mayhill MPS 552894
2014 12 13.23873 06 02 41.57 +43 59 50.2 19.1 R H15 – ISON-NM Observatory, Mayhill MPS 552894
2015 01 01.35951 05 36 55.382 +46 55 10.16 18.4 i F51 – Pan-STARRS 1, Haleakala MPS 560811
2015 01 01.38647 05 36 53.183 +46 55 20.29 18.5 i F51 – Pan-STARRS 1, Haleakala MPS 560811
2015 01 01.39994 05 36 52.084 +46 55 25.20 18.4 i F51 – Pan-STARRS 1, Haleakala MPS 560811
2015 02 24.29316 05 19 14.385 +47 35 14.66 20.2 r F51 – Pan-STARRS 1, Haleakala MPS 585429
2015 02 24.30690 05 19 15.020 +47 35 12.95 20.1 r F51 – Pan-STARRS 1, Haleakala MPS 585429
2015 02 24.32039 05 19 15.621 +47 35 11.52 20.3 r F51 – Pan-STARRS 1, Haleakala MPS 585429
2015 02 24.33366 05 19 16.210 +47 35 09.95 20.1 r F51 – Pan-STARRS 1, Haleakala MPS 585429
2016 01 18.52528 14 26 33.74 +07 51 52.7 20.3 V G96 – Mt. Lemmon Survey MPS 673656
2016 01 18.52842 14 26 33.86 +07 51 52.7 20.4 V G96 – Mt. Lemmon Survey MPS 673656
2016 01 18.53157 14 26 33.99 +07 51 52.3 21.0 V G96 – Mt. Lemmon Survey MPS 673656
2016 01 18.53472 14 26 34.17 +07 51 52.2 20.4 V G96 – Mt. Lemmon Survey MPS 673656
2016 03 02.64735 14 41 05.961 +08 27 52.39 20.1 z F51 – Pan-STARRS 1, Haleakala MPS 689590
2016 03 02.65324 14 41 05.877 +08 27 53.45 20.1 z F51 – Pan-STARRS 1, Haleakala MPS 689590
2016 03 03.51489 14 40 56.583 +08 30 01.37 20.2 r F51 – Pan-STARRS 1, Haleakala MPS 689590
2016 03 03.52598 14 40 56.447 +08 30 02.88 20.4 r F51 – Pan-STARRS 1, Haleakala MPS 689590
